| time (UTC) | temp F | wind direction | speed knots | gust knots | rain 1hr in | rain 24hr in | rain mn in | humidity % | barometer mb |
| 20260506092032 | 39 | 136 | 0.0 | 0.0 | 0.00 | 0.00 | 0.00 | 93 | 1021.6 |
| 20260506091531 | 39 | 138 | 0.0 | 0.9 | 0.00 | 0.00 | 0.00 | 93 | 1021.6 |
| 20260506091028 | 39 | 131 | 0.0 | 0.0 | 0.00 | 0.00 | 0.00 | 93 | 1021.8 |
| 20260506090526 | 39 | 138 | 0.0 | 0.9 | 0.00 | 0.00 | 0.00 | 93 | 1021.9 |
| 20260506090021 | 39 | 133 | 0.0 | 0.0 | 0.00 | 0.00 | 0.00 | 93 | 1021.6 |
| 20260506085519 | 39 | 140 | 0.0 | 0.9 | 0.00 | 0.00 | 0.00 | 92 | 1021.8 |
| 20260506085015 | 40 | 127 | 0.0 | 1.7 | 0.00 | 0.00 | 0.00 | 91 | 1021.8 |
| 20260506084512 | 40 | 144 | 0.0 | 1.7 | 0.00 | 0.00 | 0.00 | 92 | 1021.8 |
| 20260506084008 | 39 | 90 | 0.0 | 0.9 | 0.00 | 0.00 | 0.00 | 92 | 1021.6 |
| 20260506083506 | 39 | 130 | 0.0 | 0.0 | 0.00 | 0.00 | 0.00 | 92 | 1021.5 |
| 20260506083003 | 40 | 143 | 0.0 | 0.0 | 0.00 | 0.00 | 0.00 | 91 | 1021.6 |
| 20260506082459 | 40 | 107 | 0.9 | 0.9 | 0.00 | 0.00 | 0.00 | 89 | 1021.5 |
| 20260506081955 | 40 | 116 | 0.0 | 2.6 | 0.00 | 0.00 | 0.00 | 89 | 1021.4 |
| 20260506081453 | 40 | 149 | 0.9 | 1.7 | 0.00 | 0.00 | 0.00 | 91 | 1021.5 |
| 20260506070727 | 41 | 139 | 0.0 | 0.0 | 0.00 | 0.01 | 0.01 | 89 | 1020.8 |
| 20260506070224 | 41 | 139 | 0.0 | 0.0 | 0.00 | 0.01 | 0.01 | 89 | 1020.8 |
| 20260506062200 | 41 | 139 | 0.0 | 0.9 | 0.00 | 0.01 | 0.01 | 89 | 1020.5 |
| 20260506061656 | 41 | 118 | 1.7 | 1.7 | 0.00 | 0.01 | 0.01 | 89 | 1020.5 |
| 20260506061154 | 41 | 132 | 0.0 | 0.9 | 0.00 | 0.01 | 0.01 | 89 | 1020.3 |
| 20260506060652 | 41 | 143 | 0.9 | 0.9 | 0.00 | 0.01 | 0.01 | 88 | 1020.4 |
| 20260506060149 | 42 | 149 | 0.9 | 1.7 | 0.00 | 0.01 | 0.01 | 88 | 1020.4 |
| 20260506051121 | 43 | 106 | 0.9 | 0.9 | 0.00 | 0.01 | 0.01 | 87 | 1019.8 |
| 20260506050619 | 44 | 139 | 0.0 | 0.9 | 0.00 | 0.01 | 0.01 | 85 | 1019.8 |
| 20260506050116 | 44 | 128 | 0.0 | 0.0 | 0.00 | 0.01 | 0.01 | 85 | 1019.8 |
| 20260506045109 | 44 | 113 | 0.9 | 0.9 | 0.00 | 0.01 | 0.01 | 85 | 1019.7 |
| 20260506044607 | 44 | 136 | 0.0 | 0.9 | 0.00 | 0.01 | 0.01 | 87 | 1019.8 |
| 20260506044104 | 44 | 139 | 0.0 | 1.7 | 0.00 | 0.01 | 0.01 | 86 | 1019.6 |
| 20260506043601 | 45 | 134 | 0.0 | 0.0 | 0.00 | 0.01 | 0.01 | 86 | 1019.2 |
| 20260506043059 | 45 | 132 | 0.9 | 0.9 | 0.00 | 0.01 | 0.01 | 85 | 1019.2 |
| 20260506042558 | 45 | 132 | 0.0 | 0.9 | 0.00 | 0.01 | 0.01 | 86 | 1019.1 |
| 20260506042055 | 45 | 132 | 0.0 | 0.0 | 0.00 | 0.01 | 0.01 | 86 | 1019.2 |
| 20260506041554 | 45 | 132 | 0.0 | 0.0 | 0.00 | 0.01 | 0.01 | 86 | 1019.3 |
| 20260506041050 | 46 | 128 | 0.0 | 0.0 | 0.00 | 0.01 | 0.01 | 86 | 1019.3 |
| 20260506040548 | 46 | 130 | 0.0 | 0.0 | 0.00 | 0.01 | 0.01 | 85 | 1019.2 |
| 20260506040044 | 47 | 127 | 0.0 | 0.9 | 0.00 | 0.01 | 0.01 | 83 | 1019.2 |
| 20260506035541 | 47 | 127 | 0.9 | 1.7 | 0.00 | 0.01 | 0.01 | 82 | 1019.0 |
| 20260506035038 | 47 | 132 | 0.0 | 0.0 | 0.00 | 0.01 | 0.01 | 81 | 1019.0 |
| 20260506034535 | 47 | 132 | 0.0 | 1.7 | 0.00 | 0.01 | 0.01 | 81 | 1018.6 |
| 20260506034032 | 48 | 127 | 1.7 | 2.6 | 0.00 | 0.01 | 0.01 | 79 | 1018.6 |
| 20260506033530 | 48 | 129 | 0.0 | 1.7 | 0.00 | 0.01 | 0.01 | 74 | 1018.3 |
| 20260506033026 | 49 | 126 | 0.0 | 0.0 | 0.00 | 0.01 | 0.01 | 77 | 1018.5 |
| 20260506032524 | 50 | 118 | 0.0 | 0.9 | 0.00 | 0.01 | 0.01 | 70 | 1018.2 |
| 20260506032020 | 50 | 124 | 0.0 | 0.0 | 0.00 | 0.01 | 0.01 | 72 | 1018.5 |
| 20260506031518 | 50 | 108 | 0.9 | 0.9 | 0.00 | 0.01 | 0.01 | 71 | 1018.3 |
| 20260506031015 | 50 | 85 | 0.0 | 0.0 | 0.00 | 0.01 | 0.01 | 72 | 1018.0 |
| 20260506030513 | 52 | 132 | 0.0 | 0.0 | 0.00 | 0.01 | 0.01 | 70 | 1018.1 |
| 20260506030010 | 53 | 131 | 0.0 | 0.9 | 0.00 | 0.01 | 0.01 | 66 | 1018.0 |
| 20260506025507 | 53 | 276 | 1.7 | 5.2 | 0.00 | 0.01 | 0.01 | 64 | 1018.1 |
| 20260506025003 | 53 | 10 | 3.5 | 3.5 | 0.00 | 0.01 | 0.01 | 64 | 1017.9 |
| 20260506024500 | 53 | 124 | 0.9 | 3.5 | 0.00 | 0.01 | 0.01 | 66 | 1017.7 |
| 20260506023955 | 53 | 168 | 1.7 | 3.5 | 0.00 | 0.01 | 0.01 | 65 | 1018.0 |
| 20260506023453 | 53 | 122 | 3.5 | 7.8 | 0.00 | 0.01 | 0.01 | 65 | 1018.0 |
| 20260506022949 | 54 | 335 | 3.5 | 6.1 | 0.00 | 0.01 | 0.01 | 65 | 1017.7 |
| 20260506022447 | 54 | 73 | 2.6 | 6.1 | 0.00 | 0.01 | 0.01 | 65 | 1017.7 |
| 20260506021945 | 55 | 267 | 2.6 | 5.2 | 0.00 | 0.01 | 0.01 | 64 | 1017.5 |
| 20260506021442 | 56 | 296 | 5.2 | 7.8 | 0.00 | 0.01 | 0.01 | 61 | 1017.6 |
| 20260506020939 | 56 | 330 | 3.5 | 5.2 | 0.00 | 0.01 | 0.01 | 61 | 1017.6 |
| 20260506020437 | 56 | 83 | 3.5 | 6.1 | 0.00 | 0.01 | 0.01 | 60 | 1017.5 |
| 20260506015934 | 57 | 277 | 5.2 | 6.1 | 0.00 | 0.01 | 0.01 | 59 | 1017.4 |
| 20260506015431 | 57 | 285 | 4.3 | 7.0 | 0.00 | 0.01 | 0.01 | 58 | 1017.5 |
| 20260506014928 | 57 | 311 | 3.5 | 7.0 | 0.00 | 0.01 | 0.01 | 57 | 1017.2 |
| 20260506014425 | 57 | 93 | 3.5 | 7.0 | 0.00 | 0.01 | 0.01 | 57 | 1017.2 |
| 20260506013921 | 58 | 313 | 6.1 | 9.6 | 0.00 | 0.01 | 0.01 | 56 | 1017.2 |
| 20260506013420 | 58 | 302 | 5.2 | 7.0 | 0.00 | 0.01 | 0.01 | 54 | 1017.4 |
| 20260506012915 | 58 | 305 | 5.2 | 6.1 | 0.00 | 0.01 | 0.01 | 53 | 1017.5 |
| 20260506012412 | 58 | 304 | 3.5 | 5.2 | 0.00 | 0.01 | 0.01 | 55 | 1017.2 |
| 20260506011909 | 59 | 325 | 5.2 | 9.6 | 0.00 | 0.01 | 0.01 | 55 | 1017.5 |
| 20260506011406 | 59 | 301 | 4.3 | 6.1 | 0.00 | 0.01 | 0.01 | 49 | 1017.2 |
| 20260506010903 | 60 | 297 | 6.1 | 7.8 | 0.00 | 0.01 | 0.01 | 50 | 1017.2 |
| 20260506010402 | 60 | 14 | 7.0 | 9.6 | 0.00 | 0.01 | 0.01 | 48 | 1017.2 |
| 20260506005858 | 60 | 280 | 3.5 | 7.8 | 0.00 | 0.01 | 0.01 | 49 | 1017.2 |
| 20260506005355 | 61 | 245 | 3.5 | 5.2 | 0.00 | 0.01 | 0.01 | 46 | 1017.2 |
| 20260506004850 | 60 | 171 | 0.9 | 1.7 | 0.00 | 0.01 | 0.01 | 48 | 1017.1 |
| 20260506004349 | 61 | 143 | 0.9 | 1.7 | 0.00 | 0.01 | 0.01 | 51 | 1017.1 |
| 20260506003845 | 59 | 142 | 0.9 | 1.7 | 0.00 | 0.01 | 0.01 | 50 | 1017.2 |
| 20260506003341 | 59 | 130 | 0.9 | 1.7 | 0.00 | 0.01 | 0.01 | 50 | 1017.4 |
| 20260506002838 | 60 | 113 | 0.9 | 0.9 | 0.00 | 0.01 | 0.01 | 51 | 1017.0 |
| 20260506002334 | 61 | 134 | 2.6 | 2.6 | 0.00 | 0.01 | 0.01 | 46 | 1017.1 |
| 20260506001829 | 59 | 136 | 0.9 | 0.9 | 0.00 | 0.01 | 0.01 | 54 | 1017.0 |
| 20260506001327 | 57 | 125 | 0.0 | 0.9 | 0.00 | 0.01 | 0.01 | 61 | 1017.0 |
| 20260506000824 | 57 | 113 | 0.0 | 3.5 | 0.00 | 0.01 | 0.01 | 62 | 1017.0 |
| 20260506000323 | 57 | 140 | 0.0 | 2.6 | 0.00 | 0.01 | 0.01 | 59 | 1017.0 |
| 20260505235818 | 58 | 143 | 0.9 | 1.7 | 0.00 | 0.01 | 0.01 | 51 | 1016.9 |
| 20260505235316 | 58 | 109 | 0.0 | 0.0 | 0.00 | 0.01 | 0.01 | 49 | 1016.9 |
| 20260505234813 | 58 | 119 | 0.0 | 0.9 | 0.00 | 0.01 | 0.01 | 49 | 1016.8 |
| 20260505234310 | 58 | 117 | 0.0 | 0.0 | 0.00 | 0.01 | 0.01 | 50 | 1017.1 |
| 20260505233807 | 58 | 113 | 0.9 | 1.7 | 0.00 | 0.01 | 0.01 | 49 | 1016.9 |
| 20260505233305 | 58 | 119 | 0.0 | 1.7 | 0.00 | 0.01 | 0.01 | 51 | 1017.1 |
| 20260505232802 | 59 | 352 | 2.6 | 2.6 | 0.00 | 0.01 | 0.01 | 49 | 1017.0 |
| 20260505232259 | 58 | 128 | 0.0 | 0.9 | 0.00 | 0.01 | 0.01 | 50 | 1016.8 |
| 20260505231755 | 58 | 69 | 0.9 | 0.9 | 0.00 | 0.01 | 0.01 | 48 | 1017.0 |
| 20260505231254 | 59 | 51 | 3.5 | 3.5 | 0.00 | 0.01 | 0.01 | 47 | 1016.8 |
| 20260505230752 | 59 | 105 | 0.0 | 3.5 | 0.00 | 0.01 | 0.01 | 47 | 1016.9 |
| 20260505230249 | 58 | 115 | 0.9 | 2.6 | 0.00 | 0.01 | 0.01 | 50 | 1017.0 |
| 20260505225745 | 59 | 86 | 1.7 | 1.7 | 0.00 | 0.01 | 0.01 | 47 | 1016.9 |
| 20260505225243 | 59 | 47 | 2.6 | 6.1 | 0.00 | 0.01 | 0.01 | 45 | 1016.9 |
| 20260505224737 | 58 | 129 | 0.9 | 2.6 | 0.00 | 0.01 | 0.01 | 47 | 1017.1 |
| 20260505224235 | 58 | 70 | 1.7 | 6.1 | 0.00 | 0.01 | 0.01 | 47 | 1017.1 |
| 20260505223733 | 58 | 98 | 1.7 | 2.6 | 0.00 | 0.01 | 0.01 | 50 | 1017.1 |
| 20260505223229 | 58 | 85 | 0.9 | 5.2 | 0.00 | 0.01 | 0.01 | 47 | 1017.1 |
| 20260505222725 | 58 | 81 | 3.5 | 5.2 | 0.00 | 0.01 | 0.01 | 47 | 1017.4 |
| 20260505222221 | 58 | 47 | 1.7 | 3.5 | 0.00 | 0.01 | 0.01 | 50 | 1017.1 |
| 20260505221719 | 58 | 102 | 0.9 | 6.1 | 0.00 | 0.01 | 0.01 | 53 | 1017.2 |
| 20260505221215 | 57 | 98 | 3.5 | 5.2 | 0.00 | 0.01 | 0.01 | 51 | 1017.2 |
| 20260505220712 | 57 | 69 | 1.7 | 11.3 | 0.00 | 0.01 | 0.01 | 52 | 1017.2 |
| 20260505220210 | 57 | 123 | 1.7 | 3.5 | 0.00 | 0.01 | 0.01 | 55 | 1017.5 |
| 20260505215708 | 57 | 134 | 0.9 | 3.5 | 0.00 | 0.01 | 0.01 | 56 | 1017.4 |
| 20260505215205 | 56 | 49 | 4.3 | 7.0 | 0.00 | 0.01 | 0.01 | 55 | 1017.2 |
| 20260505214703 | 57 | 82 | 1.7 | 5.2 | 0.00 | 0.01 | 0.01 | 54 | 1017.4 |
| 20260505214200 | 57 | 320 | 3.5 | 5.2 | 0.00 | 0.01 | 0.01 | 56 | 1017.1 |
| 20260505213657 | 55 | 119 | 0.0 | 1.7 | 0.00 | 0.01 | 0.01 | 60 | 1017.5 |
| 20260505213154 | 55 | 106 | 0.9 | 3.5 | 0.00 | 0.01 | 0.01 | 60 | 1017.6 |
| 20260505212650 | 55 | 21 | 1.7 | 5.2 | 0.00 | 0.01 | 0.01 | 59 | 1017.5 |
| 20260505212148 | 55 | 352 | 4.3 | 5.2 | 0.00 | 0.01 | 0.01 | 59 | 1017.6 |
| 20260505211644 | 55 | 77 | 2.6 | 5.2 | 0.00 | 0.01 | 0.01 | 58 | 1017.5 |
| 20260505211142 | 55 | 42 | 3.5 | 6.1 | 0.00 | 0.01 | 0.01 | 59 | 1017.6 |
| 20260505210638 | 55 | 102 | 1.7 | 5.2 | 0.00 | 0.01 | 0.01 | 58 | 1017.4 |
| 20260505210135 | 55 | 105 | 0.9 | 3.5 | 0.00 | 0.01 | 0.01 | 58 | 1017.7 |
| 20260505205632 | 55 | 59 | 2.6 | 7.0 | 0.00 | 0.01 | 0.01 | 60 | 1017.4 |
| 20260505205131 | 56 | 71 | 2.6 | 8.7 | 0.00 | 0.01 | 0.01 | 60 | 1017.5 |
| 20260505204627 | 54 | 128 | 0.0 | 0.9 | 0.00 | 0.01 | 0.01 | 63 | 1017.4 |
| 20260505204125 | 55 | 52 | 0.9 | 3.5 | 0.00 | 0.01 | 0.01 | 62 | 1017.5 |
| 20260505203621 | 55 | 86 | 2.6 | 6.1 | 0.00 | 0.01 | 0.01 | 59 | 1017.2 |
| 20260505203119 | 55 | 78 | 3.5 | 5.2 | 0.00 | 0.01 | 0.01 | 56 | 1017.5 |
| 20260505202614 | 55 | 159 | 5.2 | 7.0 | 0.00 | 0.01 | 0.01 | 62 | 1017.5 |
| 20260505202110 | 56 | 50 | 1.7 | 6.1 | 0.00 | 0.01 | 0.01 | 61 | 1017.4 |
| 20260505201607 | 55 | 96 | 3.5 | 3.5 | 0.00 | 0.01 | 0.01 | 60 | 1017.5 |
| 20260505201105 | 54 | 38 | 1.7 | 5.2 | 0.00 | 0.01 | 0.01 | 61 | 1017.4 |
| 20260505200603 | 53 | 78 | 2.6 | 3.5 | 0.00 | 0.01 | 0.01 | 67 | 1017.4 |
| 20260505200059 | 54 | 114 | 2.6 | 5.2 | 0.00 | 0.01 | 0.01 | 66 | 1017.6 |
| 20260505195555 | 53 | 113 | 0.0 | 5.2 | 0.00 | 0.01 | 0.01 | 67 | 1017.2 |
| 20260505195053 | 54 | 54 | 3.5 | 7.8 | 0.00 | 0.01 | 0.01 | 67 | 1017.5 |
| 20260505194550 | 53 | 131 | 1.7 | 2.6 | 0.00 | 0.01 | 0.01 | 68 | 1017.9 |
| 20260505194045 | 54 | 142 | 1.7 | 2.6 | 0.00 | 0.01 | 0.01 | 70 | 1017.5 |
| 20260505193543 | 52 | 107 | 0.0 | 0.9 | 0.00 | 0.01 | 0.01 | 76 | 1017.7 |
| 20260505193040 | 51 | 119 | 0.0 | 0.0 | 0.00 | 0.01 | 0.01 | 81 | 1017.6 |
| 20260505192539 | 50 | 109 | 0.0 | 2.6 | 0.00 | 0.01 | 0.01 | 81 | 1017.6 |
| 20260505192036 | 50 | 84 | 0.9 | 1.7 | 0.00 | 0.01 | 0.01 | 80 | 1017.6 |
| 20260505191534 | 48 | 114 | 0.0 | 1.7 | 0.00 | 0.01 | 0.01 | 82 | 1017.6 |
| 20260505191031 | 49 | 122 | 0.9 | 2.6 | 0.00 | 0.01 | 0.01 | 79 | 1017.6 |
| 20260505190526 | 49 | 89 | 0.9 | 3.5 | 0.00 | 0.01 | 0.01 | 80 | 1017.6 |
| 20260505190022 | 49 | 121 | 0.9 | 1.7 | 0.00 | 0.01 | 0.01 | 80 | 1017.6 |
| 20260505185519 | 49 | 94 | 1.7 | 3.5 | 0.00 | 0.01 | 0.01 | 79 | 1017.7 |
| 20260505185016 | 49 | 111 | 1.7 | 3.5 | 0.00 | 0.01 | 0.01 | 80 | 1017.5 |
| 20260505184513 | 47 | 99 | 0.9 | 2.6 | 0.00 | 0.01 | 0.01 | 84 | 1017.5 |
| 20260505184009 | 47 | 105 | 0.9 | 1.7 | 0.00 | 0.01 | 0.01 | 82 | 1017.5 |
| 20260505183506 | 48 | 118 | 0.0 | 0.0 | 0.00 | 0.01 | 0.01 | 84 | 1017.1 |
| 20260505183003 | 47 | 123 | 0.0 | 1.7 | 0.00 | 0.01 | 0.01 | 84 | 1017.5 |
| 20260505182500 | 46 | 111 | 0.9 | 0.9 | 0.00 | 0.01 | 0.01 | 89 | 1017.4 |
| 20260505181956 | 46 | 109 | 0.9 | 1.7 | 0.00 | 0.01 | 0.01 | 87 | 1017.4 |
| 20260505181453 | 46 | 113 | 1.7 | 1.7 | 0.00 | 0.01 | 0.01 | 86 | 1017.2 |
| 20260505180950 | 46 | 107 | 0.9 | 2.6 | 0.00 | 0.01 | 0.01 | 87 | 1017.2 |
| 20260505180446 | 46 | 111 | 0.0 | 0.9 | 0.00 | 0.01 | 0.01 | 86 | 1017.1 |
| 20260505175943 | 45 | 114 | 0.0 | 0.0 | 0.00 | 0.01 | 0.01 | 90 | 1017.4 |
| 20260505175439 | 45 | 90 | 0.0 | 0.9 | 0.00 | 0.01 | 0.01 | 89 | 1017.2 |
| 20260505174936 | 45 | 92 | 0.9 | 1.7 | 0.00 | 0.01 | 0.01 | 90 | 1017.1 |
| 20260505174433 | 44 | 126 | 0.0 | 1.7 | 0.00 | 0.01 | 0.01 | 91 | 1017.0 |
| 20260505173929 | 44 | 93 | 0.9 | 3.5 | 0.00 | 0.01 | 0.01 | 89 | 1016.8 |
| 20260505173426 | 44 | 60 | 0.9 | 0.9 | 0.00 | 0.01 | 0.01 | 89 | 1017.0 |
| 20260505172923 | 44 | 104 | 0.0 | 1.7 | 0.00 | 0.01 | 0.01 | 90 | 1016.8 |
| 20260505172421 | 44 | 108 | 0.0 | 0.9 | 0.00 | 0.01 | 0.01 | 90 | 1017.0 |
| 20260505171920 | 44 | 100 | 0.9 | 3.5 | 0.00 | 0.01 | 0.01 | 91 | 1016.8 |
| 20260505171418 | 44 | 89 | 0.9 | 0.9 | 0.00 | 0.01 | 0.01 | 91 | 1016.8 |
| 20260505170914 | 44 | 75 | 1.7 | 2.6 | 0.00 | 0.01 | 0.01 | 91 | 1016.6 |
| 20260505170411 | 43 | 106 | 0.9 | 1.7 | 0.00 | 0.01 | 0.01 | 92 | 1016.6 |
| 20260505165906 | 43 | 93 | 0.0 | 2.6 | 0.00 | 0.01 | 0.01 | 92 | 1016.9 |
| 20260505165402 | 43 | 113 | 0.0 | 5.2 | 0.00 | 0.01 | 0.01 | 93 | 1016.6 |
| 20260505164858 | 43 | 326 | 3.5 | 3.5 | 0.00 | 0.01 | 0.01 | 92 | 1016.6 |
| 20260505164355 | 43 | 116 | 0.9 | 1.7 | 0.00 | 0.01 | 0.01 | 93 | 1016.5 |
| 20260505163853 | 43 | 7 | 1.7 | 2.6 | 0.00 | 0.01 | 0.01 | 93 | 1016.4 |
| 20260505163352 | 43 | 125 | 0.0 | 1.7 | 0.00 | 0.01 | 0.01 | 94 | 1016.6 |
| 20260505162850 | 42 | 186 | 0.9 | 1.7 | 0.00 | 0.01 | 0.01 | 95 | 1016.5 |
| 20260505162345 | 42 | 115 | 0.9 | 1.7 | 0.00 | 0.01 | 0.01 | 96 | 1016.3 |
| 20260505161843 | 42 | 80 | 0.9 | 1.7 | 0.00 | 0.01 | 0.01 | 96 | 1016.4 |
| 20260505161340 | 41 | 105 | 0.9 | 0.9 | 0.00 | 0.01 | 0.01 | 97 | 1016.0 |
| 20260505160837 | 41 | 100 | 0.9 | 0.9 | 0.00 | 0.01 | 0.01 | 98 | 1016.0 |
| 20260505160335 | 41 | 100 | 0.0 | 0.9 | 0.00 | 0.01 | 0.01 | 98 | 1016.3 |
| 20260505153314 | 39 | 108 | 0.0 | 0.9 | 0.00 | 0.01 | 0.01 | 99 | 1016.0 |
| 20260505152811 | 39 | 112 | 0.0 | 0.9 | 0.00 | 0.01 | 0.01 | 99 | 1015.9 |
| 20260505152307 | 39 | 110 | 0.0 | 0.9 | 0.00 | 0.01 | 0.01 | 99 | 1015.8 |
| 20260505151802 | 39 | 107 | 0.0 | 0.9 | 0.00 | 0.01 | 0.01 | 99 | 1015.8 |
| 20260505151259 | 39 | 113 | 0.0 | 0.0 | 0.00 | 0.01 | 0.01 | 99 | 1015.7 |
| 20260505150756 | 38 | 119 | 0.0 | 0.0 | 0.00 | 0.01 | 0.01 | 99 | 1015.7 |
| 20260505150253 | 38 | 117 | 0.0 | 0.9 | 0.00 | 0.01 | 0.01 | 99 | 1015.4 |
| 20260505140223 | 37 | 126 | 0.0 | 0.0 | 0.00 | 0.01 | 0.01 | 99 | 1015.0 |
| 20260505130147 | 36 | 127 | 0.0 | 0.0 | 0.00 | 0.00 | 0.00 | 99 | 1014.7 |
| 20260505124637 | 36 | 127 | 0.0 | 0.0 | 0.00 | 0.00 | 0.00 | 99 | 1014.4 |
| 20260505124133 | 36 | 126 | 0.0 | 0.0 | 0.00 | 0.00 | 0.00 | 99 | 1014.4 |
| 20260505123629 | 36 | 126 | 0.0 | 0.0 | 0.00 | 0.00 | 0.00 | 99 | 1014.6 |
| 20260505123126 | 36 | 126 | 0.0 | 0.0 | 0.00 | 0.00 | 0.00 | 99 | 1014.6 |
| 20260505122623 | 36 | 126 | 0.0 | 0.0 | 0.00 | 0.00 | 0.00 | 99 | 1014.4 |
| 20260505122120 | 36 | 123 | 0.0 | 0.0 | 0.00 | 0.00 | 0.00 | 99 | 1014.6 |
| 20260505121616 | 36 | 126 | 0.0 | 0.0 | 0.00 | 0.00 | 0.00 | 99 | 1014.7 |
| 20260505121113 | 36 | 126 | 0.0 | 0.0 | 0.00 | 0.00 | 0.00 | 99 | 1014.3 |
| 20260505120609 | 36 | 126 | 0.0 | 0.0 | 0.00 | 0.00 | 0.00 | 99 | 1014.6 |
| 20260505120105 | 36 | 126 | 0.0 | 0.0 | 0.00 | 0.00 | 0.00 | 99 | 1014.3 |
| 20260505115600 | 36 | 126 | 0.0 | 0.0 | 0.00 | 0.00 | 0.00 | 99 | 1014.4 |
| 20260505115058 | 36 | 126 | 0.0 | 0.0 | 0.00 | 0.00 | 0.00 | 99 | 1014.3 |
| 20260505114555 | 36 | 126 | 0.0 | 0.0 | 0.00 | 0.00 | 0.00 | 99 | 1014.3 |
| 20260505114051 | 36 | 127 | 0.0 | 0.0 | 0.00 | 0.00 | 0.00 | 99 | 1014.6 |
| 20260505113547 | 36 | 127 | 0.0 | 0.0 | 0.00 | 0.00 | 0.00 | 99 | 1014.4 |
| 20260505113044 | 36 | 127 | 0.0 | 0.0 | 0.00 | 0.00 | 0.00 | 99 | 1014.6 |
| 20260505112540 | 36 | 127 | 0.0 | 0.9 | 0.00 | 0.00 | 0.00 | 99 | 1014.4 |
| 20260505112038 | 36 | 126 | 0.0 | 0.0 | 0.00 | 0.00 | 0.00 | 99 | 1014.4 |
| 20260505111532 | 36 | 126 | 0.0 | 0.0 | 0.00 | 0.00 | 0.00 | 99 | 1014.4 |
| 20260505111028 | 36 | 126 | 0.0 | 0.0 | 0.00 | 0.00 | 0.00 | 99 | 1014.7 |
| 20260505110525 | 36 | 126 | 0.0 | 0.0 | 0.00 | 0.00 | 0.00 | 99 | 1014.7 |
| 20260505101957 | 36 | 124 | 0.0 | 0.0 | 0.00 | 0.00 | 0.00 | 99 | 1014.7 |
| 20260505101455 | 36 | 123 | 0.0 | 0.0 | 0.00 | 0.00 | 0.00 | 99 | 1014.8 |
| 20260505100951 | 36 | 124 | 0.0 | 0.0 | 0.00 | 0.00 | 0.00 | 99 | 1014.6 |
| 20260505100449 | 35 | 122 | 0.0 | 0.0 | 0.00 | 0.00 | 0.00 | 99 | 1014.8 |
| 20260505095945 | 36 | 122 | 0.0 | 0.0 | 0.00 | 0.00 | 0.00 | 99 | 1014.7 |
| 20260505095442 | 35 | 122 | 0.0 | 0.0 | 0.00 | 0.00 | 0.00 | 99 | 1014.8 |
| 20260505094938 | 35 | 126 | 0.0 | 0.0 | 0.00 | 0.00 | 0.00 | 99 | 1014.9 |
| 20260505094435 | 35 | 127 | 0.0 | 0.0 | 0.00 | 0.00 | 0.00 | 99 | 1014.8 |
| 20260505093931 | 35 | 127 | 0.0 | 0.0 | 0.00 | 0.00 | 0.00 | 99 | 1014.7 |
| 20260505093428 | 35 | 126 | 0.0 | 0.0 | 0.00 | 0.00 | 0.00 | 99 | 1014.8 |
| 20260505092925 | 35 | 126 | 0.0 | 0.0 | 0.00 | 0.00 | 0.00 | 99 | 1015.0 |
| 20260505092423 | 35 | 126 | 0.0 | 0.0 | 0.00 | 0.00 | 0.00 | 99 | 1014.9 |